Wind_Speed
35 31 29 26 24 25 25 23 22 19 17 17 14 13 13 13 11 10 9 9 5 4 5 8 9 8 7 9 13 14 23 23 18 13 10 7 6 7 4 2 1 1 2
34 33 29 26 26 25 25 24 25 24 21 20 18 16 16 15 13 12 11 10 9 7 7 8 10 9 8 8 9 12 15 17 17 18 12 11 8 6 2 1 0 1 2
35 33 32 29 27 28 27 25 24 25 26 23 22 20 19 18 16 15 13 12 11 10 9 9 10 11 10 8 10 10 11 12 11 14 14 13 10 6 3 2 2 3 1
34 33 31 30 30 30 30 29 27 26 26 27 26 24 22 20 18 17 17 15 13 12 10 10 10 10 9 8 8 9 12 13 13 13 13 12 8 4 3 5 5 5 3
30 33 33 31 30 31 30 29 30 30 29 27 27 26 25 24 23 20 18 18 16 13 12 12 11 11 11 10 9 11 12 13 14 14 12 9 5 2 2 2 3 4 3
19 28 31 34 34 32 30 29 28 31 30 30 29 28 27 27 25 21 18 17 17 15 14 13 13 14 14 13 12 12 12 14 15 15 10 8 4 3 2 2 1 3 4
11 13 18 24 29 33 31 28 28 28 26 28 31 30 32 30 26 24 20 19 17 16 16 14 14 14 15 15 15 13 15 15 11 6 9 8 5 4 6 5 4 2 3
7 9 11 12 18 25 31 30 29 28 28 29 32 31 31 29 27 23 22 21 20 18 15 14 16 16 16 16 16 16 15 16 14 11 11 9 6 8 8 6 8 8 7
7 6 6 7 11 14 18 22 28 30 30 31 31 30 31 30 27 26 26 26 25 23 22 16 20 19 18 18 18 17 16 16 17 16 13 12 12 9 5 4 7 7 8
6 6 9 10 12 12 11 15 19 21 26 29 30 29 30 30 29 29 29 29 29 24 26 23 26 25 22 21 20 19 19 18 18 18 19 17 12 8 4 1 4 6 9
7 9 9 11 13 14 13 14 16 18 22 26 28 28 28 28 28 29 29 29 34 30 32 30 30 27 25 23 22 21 18 18 17 17 19 16 12 8 6 4 1 5 7
17 17 17 16 14 13 15 16 18 20 21 24 29 33 32 30 29 27 29 30 35 32 31 30 30 28 25 26 25 22 20 21 20 19 20 17 13 10 9 7 1 3 5
19 20 22 21 19 18 18 17 19 20 21 23 26 28 28 29 28 26 26 27 34 30 28 29 29 27 25 27 26 24 24 24 24 22 21 17 13 9 11 8 3 4 5
20 20 18 20 18 19 21 21 20 21 22 22 22 24 26 27 29 28 27 30 32 31 30 26 28 29 28 29 28 29 28 26 24 23 21 18 15 15 10 7 6 6 9
20 20 20 21 17 19 23 21 20 22 24 24 26 26 28 28 25 24 28 30 35 40 31 29 33 34 34 33 32 33 31 30 27 24 23 21 19 17 11 11 11 9 11
21 23 23 22 21 22 23 22 21 18 20 24 26 25 27 26 23 22 25 28 34 38 38 37 38 38 37 37 38 35 33 33 29 26 25 24 23 17 14 14 15 16 14
26 29 29 27 25 25 25 24 21 17 16 15 18 24 27 28 25 22 25 24 33 40 39 41 41 42 41 40 40 38 34 31 28 28 27 27 26 19 17 16 16 19 18
28 28 25 24 25 25 26 27 26 25 22 18 17 19 21 26 29 28 25 26 33 45 38 43 44 45 44 41 41 39 35 30 28 27 27 27 27 20 20 18 19 19 17
27 24 23 22 26 27 27 26 26 31 30 25 22 22 22 24 25 23 26 30 37 38 44 45 49 49 47 43 38 36 33 30 27 27 29 29 26 22 21 19 19 19 16
19 16 17 19 22 24 25 30 36 31 31 29 26 24 23 18 19 21 25 29 35 36 42 49 53 52 48 44 42 39 34 32 29 32 32 28 26 24 22 20 19 17 18
19 19 20 22 23 26 29 30 28 27 31 31 30 26 24 24 25 25 28 30 36 45 47 45 55 53 51 48 47 43 34 35 32 34 29 25 24 24 21 18 16 16 17
19 19 21 24 28 28 30 31 31 33 33 31 31 27 25 29 30 33 37 39 40 45 48 53 55 57 57 54 49 44 42 37 34 36 30 27 23 22 19 17 17 18 19
25 27 29 30 31 32 32 32 34 34 34 33 33 34 30 30 31 33 35 41 42 38 43 53 51 51 56 50 48 41 40 37 37 35 30 28 23 21 20 19 19 19 19
25 28 30 32 33 33 34 37 37 36 33 31 34 32 29 30 32 29 30 35 34 36 41 44 48 50 52 45 40 42 37 33 33 31 29 25 21 23 23 21 21 16 15
25 28 31 33 36 37 38 38 37 38 36 34 31 29 29 30 31 28 30 28 27 29 36 40 39 47 46 39 38 40 33 34 32 30 27 23 25 21 21 20 20 16 16
26 30 34 37 39 38 38 38 33 33 33 30 28 28 27 29 27 24 20 17 22 26 30 39 43 43 39 39 42 35 37 33 33 29 27 26 25 23 22 23 19 18 15
Wind_Direction
234 235 236 235 237 241 243 243 242 241 241 244 246 240 233 230 234 240 239 245 248 240 235 228 233 249 240 220 216 223 226 234 244 248 224 203 156 150 165 159 110 104 91
231 241 233 239 238 240 243 244 245 244 242 245 247 241 240 241 237 240 244 248 243 252 252 246 239 236 222 217 211 214 223 231 232 241 200 177 176 176 171 168 49 27 24
233 235 235 238 241 242 242 245 244 244 242 245 245 246 243 246 248 247 243 245 243 252 257 259 242 234 226 222 213 217 219 207 204 219 194 181 181 193 218 248 243 338 313
237 238 243 246 246 249 250 247 247 247 244 242 243 245 247 249 251 251 248 245 241 242 247 256 242 236 237 226 204 192 189 182 184 185 175 168 167 189 252 243 246 293 273
252 247 245 249 252 254 256 254 249 248 248 246 248 248 249 249 252 249 247 244 243 241 240 250 235 227 222 222 208 190 186 176 178 179 172 169 173 221 246 248 241 234 248
261 258 257 254 254 254 261 262 252 248 250 249 251 253 253 251 256 255 243 241 240 239 241 247 231 223 216 209 208 207 201 199 186 193 190 187 204 205 174 118 58 205 260
282 281 269 261 260 256 259 265 261 256 258 259 254 251 250 248 249 250 237 233 231 234 241 243 227 221 214 212 210 202 199 197 213 231 213 208 237 193 147 97 43 10 314
311 287 282 280 272 259 260 264 265 262 256 259 262 261 258 259 255 256 246 229 228 220 230 246 236 226 219 211 213 205 203 202 199 203 215 228 193 154 131 77 53 44 23
357 360 354 321 284 266 263 258 255 256 256 255 258 260 260 260 260 251 248 227 224 220 216 216 226 226 220 213 213 208 204 192 181 189 194 181 166 150 127 66 39 37 27
356 341 330 318 308 300 293 269 259 256 250 253 257 262 263 262 257 250 247 230 222 216 220 222 214 210 214 212 210 206 204 198 196 192 185 181 180 185 193 279 19 11 12
321 324 321 316 291 291 284 276 271 271 264 256 257 260 262 262 257 251 251 239 220 225 223 224 213 207 207 209 207 205 207 196 191 195 192 192 197 210 230 234 11 7 353
319 310 306 302 301 294 278 269 265 268 264 254 251 260 259 255 254 250 252 259 228 232 233 218 215 210 206 204 210 208 205 204 201 201 205 206 210 226 234 227 232 351 345
320 306 299 293 288 285 288 291 267 261 266 266 263 262 258 255 253 253 256 262 222 223 229 229 216 212 213 208 210 214 213 208 208 214 217 215 219 206 203 218 229 278 307
317 316 310 305 285 280 290 290 280 265 264 265 261 263 264 265 259 252 246 230 219 218 226 234 214 219 220 218 214 216 217 216 214 212 221 227 228 201 213 228 248 266 292
311 310 310 312 291 289 293 291 285 270 261 256 260 263 262 260 263 264 252 237 229 217 220 229 213 214 215 211 215 218 217 217 217 218 225 223 215 207 218 233 247 272 285
298 301 302 299 299 289 292 291 292 281 270 264 261 260 262 262 257 260 263 246 239 226 226 224 215 212 217 214 213 214 216 220 221 222 224 220 215 217 226 236 248 263 270
293 294 295 287 296 294 286 286 286 281 276 269 266 261 262 258 256 255 259 254 241 225 227 225 216 218 217 219 217 215 217 221 221 222 223 222 216 228 226 238 249 260 263
293 294 293 291 291 295 294 287 280 276 279 281 292 289 271 258 256 254 250 260 242 221 228 227 222 224 221 220 219 218 213 218 221 218 217 216 219 222 228 240 254 255 257
293 298 296 297 299 298 294 278 280 282 275 277 282 289 278 265 258 249 256 255 249 239 227 231 230 230 226 221 219 215 214 216 218 212 204 203 210 221 231 239 251 249 254
297 297 299 299 297 295 294 285 286 284 265 269 274 283 278 267 259 247 246 246 251 251 242 234 232 230 231 224 216 214 212 221 220 208 207 213 225 229 234 239 247 251 257
303 302 300 297 295 293 291 291 291 285 275 270 270 280 270 267 264 262 261 252 251 254 248 241 233 233 231 225 217 218 216 210 220 208 211 220 216 218 225 227 242 256 255
306 305 306 304 300 293 290 290 282 283 279 272 278 280 269 266 270 275 277 271 257 247 250 247 238 238 232 227 213 210 201 213 217 206 208 210 211 218 218 226 242 254 258
302 300 298 296 295 293 289 284 283 285 283 275 275 280 269 262 270 275 272 267 262 252 244 238 235 231 227 225 211 206 202 210 204 205 208 205 211 215 218 239 245 251 256
308 307 305 303 300 298 291 285 281 279 282 274 280 276 266 268 277 270 275 264 254 250 245 242 214 214 218 216 204 201 196 195 200 206 207 209 213 216 232 240 238 248 252
319 316 314 312 308 302 299 293 286 276 273 273 275 271 265 271 277 272 285 260 247 240 236 225 212 212 212 207 191 190 193 195 201 200 205 209 213 229 221 230 231 239 243
339 341 335 329 323 316 308 299 283 275 272 272 275 272 264 276 276 278 274 250 241 237 231 214 215 207 216 196 187 195 193 197 198 202 205 207 216 218 224 224 231 238 243
Height
1534 1538 1540 1542 1544 1546 1548 1551 1554 1557 1558 1559 1561 1562 1562 1563 1564 1565 1566 1567 1567 1566 1566 1566 1567 1568 1569 1571 1572 1573 1574 1576 1578 1580 1581 1581 1581 1582 1583 1584 1584 1583 1582
1531 1534 1537 1539 1540 1542 1544 1546 1549 1552 1554 1555 1556 1558 1560 1560 1561 1563 1563 1565 1565 1565 1565 1565 1565 1566 1567 1569 1571 1572 1573 1574 1576 1577 1578 1580 1581 1582 1583 1583 1583 1583 1582
1527 1529 1532 1535 1537 1537 1540 1543 1546 1548 1550 1552 1553 1554 1556 1558 1559 1561 1561 1563 1564 1565 1565 1564 1565 1565 1566 1566 1567 1570 1571 1572 1574 1575 1576 1578 1581 1582 1582 1582 1582 1581 1581
1521 1524 1527 1530 1532 1535 1537 1539 1542 1544 1546 1547 1547 1549 1553 1554 1555 1557 1558 1560 1561 1562 1562 1563 1563 1565 1565 1565 1565 1566 1568 1571 1572 1574 1576 1578 1580 1582 1582 1581 1580 1580 1579
1517 1519 1522 1526 1529 1531 1533 1536 1538 1539 1540 1542 1547 1546 1548 1549 1550 1551 1553 1557 1559 1560 1560 1560 1561 1562 1563 1564 1565 1566 1569 1570 1573 1575 1577 1578 1579 1580 1581 1581 1580 1578 1578
1513 1515 1519 1522 1525 1527 1529 1531 1533 1534 1536 1537 1539 1541 1541 1543 1545 1547 1549 1551 1555 1557 1558 1558 1559 1560 1562 1564 1565 1565 1567 1569 1573 1575 1576 1577 1577 1578 1578 1579 1579 1579 1579
1513 1514 1515 1518 1520 1523 1526 1527 1529 1532 1533 1533 1532 1533 1533 1535 1538 1541 1542 1545 1548 1552 1555 1555 1556 1558 1560 1562 1563 1564 1566 1568 1570 1573 1574 1576 1577 1576 1577 1578 1579 1578 1578
1513 1513 1514 1515 1516 1518 1519 1522 1525 1526 1527 1528 1527 1529 1528 1529 1532 1535 1537 1539 1541 1545 1549 1553 1555 1555 1556 1558 1562 1562 1565 1567 1569 1572 1574 1575 1575 1576 1576 1577 1577 1577 1578
1514 1514 1513 1513 1513 1514 1514 1515 1516 1518 1519 1520 1521 1521 1523 1526 1528 1530 1533 1533 1536 1539 1540 1536 1547 1552 1553 1555 1557 1560 1562 1566 1566 1568 1572 1574 1574 1576 1577 1577 1577 1577 1577
1515 1514 1513 1513 1512 1511 1511 1511 1511 1511 1512 1514 1515 1517 1517 1519 1521 1523 1526 1527 1531 1532 1534 1537 1535 1539 1548 1551 1554 1557 1559 1562 1565 1565 1568 1570 1572 1575 1576 1577 1576 1577 1575
1514 1513 1511 1510 1509 1508 1507 1506 1506 1506 1506 1508 1508 1510 1510 1510 1512 1515 1516 1520 1523 1524 1528 1529 1533 1537 1541 1546 1550 1554 1558 1560 1562 1565 1567 1568 1569 1572 1574 1575 1575 1574 1574
1511 1509 1508 1506 1504 1503 1501 1501 1500 1499 1498 1498 1499 1499 1499 1501 1504 1507 1510 1512 1514 1517 1522 1525 1530 1535 1536 1540 1546 1551 1555 1558 1559 1563 1565 1566 1567 1567 1570 1573 1574 1573 1572
1507 1505 1502 1500 1498 1498 1497 1495 1494 1493 1492 1492 1492 1492 1492 1493 1495 1499 1502 1504 1508 1512 1517 1521 1527 1532 1534 1537 1541 1547 1551 1553 1555 1558 1563 1564 1564 1563 1567 1569 1571 1571 1570
1502 1500 1497 1494 1493 1492 1491 1489 1487 1487 1486 1485 1486 1487 1488 1488 1490 1492 1494 1497 1501 1505 1510 1515 1522 1526 1528 1532 1535 1541 1544 1547 1549 1552 1558 1561 1561 1559 1562 1566 1567 1567 1567
1497 1495 1493 1490 1488 1487 1485 1483 1481 1480 1479 1479 1479 1480 1482 1481 1483 1485 1487 1489 1492 1496 1502 1507 1512 1518 1521 1523 1528 1533 1537 1540 1542 1547 1552 1555 1557 1556 1558 1562 1564 1564 1563
1492 1490 1487 1485 1482 1480 1478 1476 1474 1473 1472 1472 1472 1473 1474 1474 1476 1478 1480 1481 1486 1491 1495 1497 1501 1506 1511 1515 1519 1524 1529 1532 1536 1541 1546 1550 1553 1553 1554 1558 1560 1560 1561
1486 1483 1481 1478 1476 1474 1471 1470 1467 1466 1465 1466 1466 1467 1467 1468 1469 1470 1473 1476 1477 1482 1485 1487 1491 1495 1499 1506 1512 1516 1520 1525 1531 1535 1539 1544 1548 1549 1551 1554 1556 1556 1557
1480 1477 1473 1471 1469 1467 1466 1464 1463 1461 1460 1460 1460 1459 1460 1460 1462 1463 1465 1468 1467 1470 1475 1478 1482 1486 1491 1498 1503 1508 1514 1520 1524 1528 1532 1538 1542 1545 1547 1550 1552 1552 1553
1473 1470 1468 1465 1463 1461 1458 1457 1456 1455 1454 1453 1453 1452 1452 1452 1452 1455 1457 1458 1459 1462 1465 1468 1471 1476 1481 1488 1495 1502 1508 1513 1518 1522 1527 1532 1537 1540 1542 1545 1546 1547 1548
1467 1464 1461 1459 1456 1454 1452 1451 1449 1446 1446 1445 1444 1444 1444 1445 1444 1446 1449 1451 1452 1454 1454 1457 1459 1465 1472 1479 1488 1494 1500 1506 1512 1516 1522 1527 1531 1534 1537 1540 1542 1542 1543
1462 1459 1456 1453 1450 1447 1444 1441 1439 1438 1436 1436 1436 1436 1436 1436 1437 1438 1440 1441 1442 1441 1443 1446 1449 1453 1460 1468 1477 1484 1492 1499 1505 1511 1516 1521 1525 1529 1532 1534 1537 1537 1537
1456 1453 1450 1447 1443 1440 1436 1433 1430 1428 1425 1425 1425 1426 1426 1425 1426 1425 1424 1426 1428 1429 1430 1433 1437 1443 1448 1455 1465 1474 1481 1490 1497 1504 1510 1515 1519 1523 1527 1529 1531 1532 1533
1450 1446 1442 1438 1434 1430 1426 1423 1420 1416 1414 1413 1414 1414 1414 1415 1414 1412 1411 1409 1410 1413 1415 1416 1425 1428 1437 1443 1455 1464 1473 1480 1489 1497 1503 1508 1512 1517 1521 1523 1526 1527 1528
1444 1440 1435 1430 1425 1421 1417 1412 1409 1406 1404 1403 1403 1402 1402 1402 1400 1399 1398 1396 1396 1397 1399 1405 1408 1416 1425 1434 1448 1457 1468 1476 1485 1492 1497 1502 1506 1511 1514 1517 1520 1522 1523
1439 1434 1429 1422 1416 1410 1405 1400 1396 1394 1393 1393 1393 1393 1393 1392 1390 1388 1384 1382 1383 1385 1389 1395 1400 1409 1420 1430 1440 1452 1461 1471 1479 1486 1491 1496 1501 1505 1509 1511 1514 1516 1518
1435 1429 1421 1413 1406 1399 1392 1387 1384 1383 1382 1384 1384 1384 1383 1383 1381 1377 1375 1374 1375 1378 1383 1390 1398 1406 1414 1424 1437 1450 1458 1466 1473 1479 1485 1490 1494 1499 1503 1506 1509 1511 1512